User: anonymous   Login
Location: Strohbehn Observatory
(42.4649°N, 93.8239°W)
Time: 11:29:39
(UTC-06:00)
Language:

SL-16 R/B - Orbit

View from above orbital plane
View from above orbital plane
View from above satellite
View from above satellite

Ground track
Ground track

The orbit data is extracted from the following two-line orbital elements,

1 31793U 07029B   17052.73105682  .00000117  00000-0  85930-4 0  9996
2 31793  70.9732 271.6804 0002370 271.2466 132.8618 14.14371590498398
Epoch (UTC): 21 February 2017 17:32:43
Eccentricity: 0.0002370
inclination: 70.9732°
perigee height: 843 km
apogee height: 846 km
right ascension of ascending node: 271.6804°
argument of perigee: 271.2466°
revolutions per day: 14.14371590
mean anomaly at epoch: 132.8618°
orbit number at epoch: 49839

The dashed part of the orbit path shows where the satellite is in the earth's shadow,  

DLR